DECAYED

STARLINK-2064, 47671 (Decayed)

Orbit data source: Space-Track

STARLINK-2064, 47671 was a payload satellite owned by SpaceX/Seattle (US) in LEO that was launched on Tue, 16 Feb 2021 UTC via an FALCON 9 launch vehicle from the Air Force Eastern Test Range (AFETR). Payload-class satellites include a variety of spacecraft equipped with specific instruments for various scientific and technological missions. These include communications satellites like Starlink; space stations such as the ISS; scientific satellites like the Hubble; Earth observation satellites from companies like Planet Labs, Umbra, and HawkEye 360; GPS; miniature CubeSats for education and research; and military/defense satellites.

Not visible in the next 10 days
Identifier
47671, 2021-012BD
Orbit
Decayed
Country
Flag of USUS
Related business
Manufacturer
SpaceX/Seattle
Mission
Decayed Commercial Communications
Bus & Motor
STARLINK, Unknown motor
Mass
260 kg wet, ~248 kg dry
Launch date (UTC)
2021-02-16 (5 years ago)
Launch vehicle
FALCON 9
Launch site
Air Force Eastern Test Range (AFETR)
Object type
Payload
Rocket body
Debris
Shape & HBR
Box + 1 Pan, 10.1 m
Radar Cross Section
13.562 m², Large (>1 m²)

Expand to show TLE details & history
Last TLE update: 1 year ago

TLE from 1 year ago
0 STARLINK-2064
1 47671U 21012BD  25021.61174944  .15233331  12519-4  57977-3 0  9998
2 47671  53.0441  76.0377 0003086 327.8355 109.8201 16.44107362217997
Epoch: 2025-01-21T14:40Z
TLE epoch observation values (Epoch: 2025-01-21T14:40:55.151Z)
Latitude
51.48419°
Longitude
164.61888°
Altitude
161.677 km
Speed
7.815 km/s
True Right ascension
09h 44m 15s
True Declination
51° 18' 04"
Sunlit
Object was in full shadow at epoch
Visualization orbit readout
Latitude
Unknown
Longitude
Unknown
Altitude
Unknown
Speed
Unknown
Apparent Right ascension
Unknown
Apparent Declination
Unknown
Sunlit
N/A
Visualization observer readout
Local Sidereal Time
21:25:20
Azimuth
Unknown
Elevation
Unknown
Doppler factor
Unknown
Orbital elements
Apogee altitude
157.204 km
Perigee altitude
153.171 km
Semi-major axis
6,533.324 km
Eccentricity
0.00031
Inclination
53.0441°
RAAN
76.0377°
Arg. of periapsis
327.8355°
True anomaly
109.85336°
Mean anomaly
109.8201°
Eccentric anomaly
109.83673°
Mean motion
4.11 °/min
Orbital period
87.59 mins
BSTAR
0.00057977
Loading maneuver chart data...
Computing Atmospheric mass density...

Documentation

Showing up to 5 results
|